Showing default

OPTUS A2 (AUSSAT 2), 16275

Orbit data source: Space-Track

OPTUS A2 (AUSSAT 2), 16275 is a payload satellite owned by Aussat (AU) in GEO that was launched on Wed, 27 Nov 1985 UTC via an SPACE SHUTTLE launch vehicle from the Air Force Eastern Test Range (AFETR). Payload-class satellites include a variety of spacecraft equipped with specific instruments for various scientific and technological missions. These include communications satellites like Starlink; space stations such as the ISS; scientific satellites like the Hubble; Earth observation satellites from companies like Planet Labs, Umbra, and HawkEye 360; GPS; miniature CubeSats for education and research; and military/defense satellites.

Not visible in the next 10 days
Identifier
16275, 1985-109C
Orbit
GEO
Country
Flag of AUAU / AUS
Related business
Manufacturer
Hughes
Mission
Commercial Communications
Bus & Motor
HS-376, TE-M-700-17
Mass
~1,109 kg wet, ~433 kg dry
Launch date (UTC)
1985-11-27 (40 years ago)
Launch vehicle
SPACE SHUTTLE
Launch site
Air Force Eastern Test Range (AFETR)
Object type
Payload
Rocket body
Debris
Shape & HBR
Cyl + 2 Pan, 3.3 m
Radar Cross Section
15.895 m², Medium (>0.1 m² and < 1m²)

Expand to show TLE details & history
Last TLE update: 1 day ago

TLE from 1 day ago
0 OPTUS A2 (AUSSAT 2)
1 16275U 85109C   25258.80843697  .00000100  00000-0  00000-0 0  9992
2 16275  13.5802 342.1004 0004133 274.2461  78.9173  0.99936899 43782
Epoch: 2025-09-15T19:24Z
TLE epoch observation values (Epoch: 2025-09-15T19:24:08.954Z)
Latitude
-1.59887°
Longitude
49.44517°
Altitude
35,877.175 km
Speed
3.072 km/s
True Right ascension
22h 21m 57s
True Declination
-1° 35' 50"
Sunlit
Object was in daylight at epoch
Visualization orbit readout
Latitude
Unknown
Longitude
Unknown
Altitude
Unknown
Speed
Unknown
Apparent Right ascension
Unknown
Apparent Declination
Unknown
Sunlit
N/A
Visualization observer readout
Local Sidereal Time
12:00:19
Azimuth
Unknown
Elevation
Unknown
Doppler factor
Unknown
Orbital elements
Apogee altitude
35,899.186 km
Perigee altitude
35,864.254 km
Semi-major axis
42,259.857 km
Eccentricity
0.00041
Inclination
13.5802°
RAAN
342.1004°
Arg. of periapsis
274.2461°
True anomaly
78.96378°
Mean anomaly
78.9173°
Eccentric anomaly
78.94054°
Mean motion
0.24983 °/min
Orbital period
1,440.96 mins
BSTAR
0
Loading maneuver chart data...
Computing Atmospheric mass density...
Loading historical data...
Loading historical data...
Loading historical data...
Loading historical data...
Loading historical data...
Loading historical data...
Loading historical data...

Documentation

Showing up to 5 results
|